Regional Weather Roundup
Issued by NWS Charleston, WV

Home | Current Version | Previous Version | Text Only | Print | Product List | Glossary Off
Versions: 1 2 3 4 5 6 7 8 9 10 11 12 13 14 15 16 17 18 19 20 21 22 23 24 25 26 27 28 29 30 31 32 33 34 35 36 37 38 39 40 41 42 43 44 45 46 47 48 49 50

000
ASUS41 KRLX 280010
RWRRLX
West Virginia Regional Weather Roundup
National Weather Service Charleston WV
800 PM EDT WED MAY 27 2015

Note: "fair" indicates few or no clouds below 12,000 feet with no
significant weather and/or obstructions to visibility.

WVZ003-280100-
Northern Panhandle of West Virginia

CITY           SKY/WX    TMP DP  RH WIND       PRES   REMARKS
WHEELING       NOT AVBL
$$

WVZ009-280100-
Northwest West Virginia

CITY           SKY/WX    TMP DP  RH WIND       PRES   REMARKS
PARKERSBURG    CLEAR     77  64  64 S7        30.13F
$$

WVZ006-280100-
Western West Virginia

CITY           SKY/WX    TMP DP  RH WIND       PRES   REMARKS
HUNTINGTON     PTCLDY    77  62  59 SW5       30.12F
$$

WVZ015-280100-
West Central West Virginia

CITY           SKY/WX    TMP DP  RH WIND       PRES   REMARKS
CHARLESTON     PTCLDY    79  61  53 W8        30.13S
$$

WVZ022-031-280100-
North Central West Virginia

CITY           SKY/WX    TMP DP  RH WIND       PRES   REMARKS
CLARKSBURG     CLEAR     76  63  64 S6        30.14S
MORGANTOWN     CLEAR     78  59  51 S6        30.14S
$$

WVZ025-035-042-045-280100-
Southern West Virginia

CITY           SKY/WX    TMP DP  RH WIND       PRES   REMARKS
BECKLEY        CLEAR     76  55  48 W6        30.22S
LOGAN            N/A     77  61  57 CALM      30.15S
BLUEFIELD      PTCLDY    77  56  48 W6        30.25S
LEWISBURG      CLEAR     78  57  47 CALM      30.21S
$$

WVZ047-280100-
Northern Mountains of West Virginia

CITY           SKY/WX    TMP DP  RH WIND       PRES   REMARKS
ELKINS         CLEAR     76  60  57 NW5       30.19R
$$

WVZ052-280100-
Eastern Panhandle of West Virginia

CITY           SKY/WX    TMP DP  RH WIND       PRES   REMARKS
MARTINSBURG    PTCLDY    77  69  76 CALM      30.12S
PETERSBURG     MOCLDY    80  63  54 E3        30.12S
$$



USA.gov is the U.S. government's official web portal to all federal, state and local government web resources and services.